When you browse on this site, cookies collect data to enhance your experience and personalize the content and advertising you see.
Visit our Privacy Policy to learn more. By continuing to use the site, you agree to this use of cookies and data.
  • In Czech Republic
  • List of Countries
  • For 7 days
  • Water Temperature
  • Satellite Maps
  • Weather Map
  • Weather Widgets
  • user-avatar
    Login

    Hourly Weather Quebec

    Today, 26 April, Friday

    Time Temperature Precipitation Wind Pressure Humidity
    00:00 -2°C° 0 mm 4 mps 691 mmHg 96%
    01:00 -1°C° 0 mm 3 mps 691 mmHg 97%
    02:00 -1°C° 0 mm 3 mps 691 mmHg 97%
    03:00 -1°C° 0 mm 3 mps 691 mmHg 98%
    04:00 -1°C° 0 mm 2 mps 691 mmHg 98%
    05:00 +1°C° 0.1 mm 2 mps 691 mmHg 98%
    06:00 +1°C° 0.1 mm 2 mps 692 mmHg 99%
    07:00 +1°C° 0.1 mm 2 mps 692 mmHg 99%
    08:00 +2°C° 0 mm 2 mps 692 mmHg 99%
    09:00 +2°C° 0 mm 2 mps 692 mmHg 99%
    10:00 +2°C° 0 mm 2 mps 692 mmHg 99%
    11:00 +4°C° 0 mm 1 mps 692 mmHg 97%
    12:00 +5°C° 0 mm 1 mps 692 mmHg 96%
    13:00 +5°C° 0 mm 1 mps 692 mmHg 95%
    14:00 +5°C° 0 mm 1 mps 692 mmHg 94%
    15:00 +5°C° 0 mm 1 mps 692 mmHg 93%
    16:00 +5°C° 0 mm 2 mps 692 mmHg 93%
    17:00 +4°C° 0 mm 2 mps 691 mmHg 94%
    18:00 +2°C° 0 mm 3 mps 691 mmHg 95%
    19:00 +2°C° 0 mm 3 mps 691 mmHg 96%
    20:00 0°C° 0.2 mm 4 mps 691 mmHg 95%
    21:00 0°C° 0.2 mm 4 mps 690 mmHg 94%
    22:00 0°C° 0.2 mm 5 mps 690 mmHg 94%
    23:00 0°C° 0.6 mm 5 mps 689 mmHg 93%

    Tomorrow, 27 April, Saturday

    Time Temperature Precipitation Wind Pressure Humidity
    00:00 -1°C° 0.6 mm 6 mps 688 mmHg 92%
    01:00 -1°C° 0.6 mm 7 mps 688 mmHg 91%
    02:00 -1°C° 0.7 mm 7 mps 687 mmHg 89%
    03:00 -1°C° 0.7 mm 7 mps 686 mmHg 88%
    04:00 -1°C° 0.7 mm 8 mps 686 mmHg 87%
    05:00 -1°C° 0.6 mm 8 mps 685 mmHg 87%
    06:00 -1°C° 0.6 mm 9 mps 685 mmHg 87%
    07:00 -1°C° 0.6 mm 9 mps 684 mmHg 87%
    08:00 -1°C° 1.3 mm 9 mps 684 mmHg 87%
    09:00 -1°C° 1.3 mm 9 mps 684 mmHg 86%
    10:00 -1°C° 1.3 mm 8 mps 684 mmHg 86%
    11:00 0°C° 1.3 mm 8 mps 683 mmHg 86%
    12:00 0°C° 1.3 mm 8 mps 683 mmHg 87%
    13:00 0°C° 1.3 mm 8 mps 683 mmHg 87%
    14:00 +1°C° 1.4 mm 8 mps 682 mmHg 87%
    15:00 +1°C° 1.4 mm 8 mps 682 mmHg 88%
    16:00 +1°C° 1.4 mm 8 mps 682 mmHg 88%
    17:00 0°C° 1.7 mm 7 mps 682 mmHg 89%
    18:00 0°C° 1.7 mm 7 mps 681 mmHg 90%
    19:00 +1°C° 1.7 mm 6 mps 681 mmHg 91%
    20:00 +1°C° 1.8 mm 6 mps 681 mmHg 92%
    21:00 +1°C° 1.8 mm 5 mps 681 mmHg 93%
    22:00 +1°C° 1.8 mm 5 mps 681 mmHg 94%
    23:00 +1°C° 0.8 mm 5 mps 681 mmHg 94%

    Day after tomorrow, 28 April, Sunday

    Time Temperature Precipitation Wind Pressure Humidity
    00:00 +1°C° 0.8 mm 4 mps 681 mmHg 95%
    01:00 +1°C° 0.8 mm 4 mps 681 mmHg 95%
    02:00 -1°C° 1 mm 5 mps 681 mmHg 94%
    03:00 -4°C° 1 mm 5 mps 682 mmHg 94%
    04:00 -6°C° 1 mm 6 mps 682 mmHg 93%
    05:00 -8°C° 0.8 mm 6 mps 683 mmHg 92%
    06:00 -9°C° 0.8 mm 6 mps 684 mmHg 91%
    07:00 -11°C° 0.8 mm 6 mps 684 mmHg 90%
    08:00 -10°C° 0.2 mm 6 mps 686 mmHg 87%
    09:00 -9°C° 0.2 mm 6 mps 687 mmHg 84%
    10:00 -9°C° 0.2 mm 6 mps 688 mmHg 80%
    11:00 -8°C° 0.1 mm 6 mps 689 mmHg 79%
    12:00 -8°C° 0.1 mm 6 mps 689 mmHg 78%
    13:00 -8°C° 0.1 mm 6 mps 690 mmHg 76%
    14:00 -8°C° 0.1 mm 6 mps 691 mmHg 76%
    15:00 -8°C° 0.1 mm 6 mps 691 mmHg 76%
    16:00 -9°C° 0.1 mm 6 mps 692 mmHg 76%
    17:00 -9°C° 0.1 mm 6 mps 693 mmHg 77%
    18:00 -10°C° 0.1 mm 6 mps 693 mmHg 78%
    19:00 -11°C° 0.1 mm 7 mps 694 mmHg 79%
    20:00 -12°C° 0.1 mm 7 mps 695 mmHg 79%
    21:00 -12°C° 0.1 mm 7 mps 695 mmHg 79%
    22:00 -13°C° 0.1 mm 7 mps 696 mmHg 78%
    23:00 -13°C° 0.1 mm 7 mps 696 mmHg 78%

    29 April, Monday

    Time Temperature Precipitation Wind Pressure Humidity
    00:00 -14°C° 0.1 mm 6 mps 696 mmHg 78%
    01:00 -14°C° 0.1 mm 6 mps 697 mmHg 78%
    02:00 -15°C° 0 mm 6 mps 697 mmHg 78%
    03:00 -15°C° 0 mm 6 mps 698 mmHg 79%
    04:00 -16°C° 0 mm 6 mps 698 mmHg 79%
    05:00 -16°C° 0 mm 6 mps 698 mmHg 77%
    06:00 -16°C° 0 mm 6 mps 699 mmHg 76%
    07:00 -16°C° 0 mm 6 mps 699 mmHg 74%
    08:00 -15°C° 0 mm 6 mps 700 mmHg 72%
    09:00 -14°C° 0 mm 6 mps 700 mmHg 69%
    10:00 -12°C° 0 mm 6 mps 700 mmHg 67%
    11:00 -12°C° 0 mm 7 mps 700 mmHg 66%
    12:00 -11°C° 0 mm 7 mps 701 mmHg 65%
    13:00 -11°C° 0 mm 7 mps 701 mmHg 64%
    14:00 -11°C° 0 mm 7 mps 701 mmHg 63%
    15:00 -9°C° 0 mm 6 mps 701 mmHg 63%
    16:00 -9°C° 0 mm 6 mps 701 mmHg 63%
    17:00 -10°C° 0 mm 6 mps 701 mmHg 66%
    18:00 -11°C° 0 mm 5 mps 701 mmHg 69%
    19:00 -11°C° 0 mm 5 mps 702 mmHg 72%
    20:00 -11°C° 0 mm 4 mps 702 mmHg 75%
    21:00 -12°C° 0 mm 4 mps 702 mmHg 79%
    22:00 -12°C° 0 mm 4 mps 702 mmHg 82%
    23:00 -14°C° 0 mm 4 mps 702 mmHg 83%

    30 April, Tuesday

    Time Temperature Precipitation Wind Pressure Humidity
    00:00 -14°C° 0 mm 4 mps 702 mmHg 85%
    01:00 -14°C° 0 mm 4 mps 702 mmHg 87%
    02:00 -14°C° 0 mm 3 mps 702 mmHg 88%
    03:00 -14°C° 0 mm 3 mps 702 mmHg 89%
    04:00 -14°C° 0 mm 3 mps 702 mmHg 90%
    05:00 -14°C° 0 mm 3 mps 702 mmHg 85%
    06:00 -13°C° 0 mm 3 mps 702 mmHg 80%
    07:00 -14°C° 0 mm 4 mps 702 mmHg 75%
    08:00 -12°C° 0 mm 4 mps 703 mmHg 67%
    09:00 -10°C° 0 mm 4 mps 703 mmHg 60%
    10:00 -9°C° 0 mm 4 mps 703 mmHg 52%
    11:00 -8°C° 0 mm 4 mps 703 mmHg 51%
    12:00 -7°C° 0 mm 5 mps 703 mmHg 49%
    13:00 -6°C° 0 mm 5 mps 703 mmHg 48%
    14:00 -6°C° 0 mm 5 mps 703 mmHg 50%
    15:00 -6°C° 0 mm 5 mps 703 mmHg 52%
    16:00 -6°C° 0 mm 6 mps 704 mmHg 53%
    17:00 -7°C° 0 mm 5 mps 704 mmHg 57%
    18:00 -8°C° 0 mm 5 mps 704 mmHg 62%
    19:00 -9°C° 0 mm 4 mps 704 mmHg 66%
    20:00 -10°C° 0 mm 4 mps 704 mmHg 69%
    21:00 -10°C° 0 mm 4 mps 705 mmHg 72%
    22:00 -11°C° 0 mm 4 mps 705 mmHg 75%
    23:00 -12°C° 0 mm 4 mps 705 mmHg 77%

    1 May, Wednesday

    Time Temperature Precipitation Wind Pressure Humidity
    00:00 -12°C° 0 mm 4 mps 705 mmHg 78%
    01:00 -12°C° 0 mm 3 mps 705 mmHg 80%
    02:00 -13°C° 0 mm 3 mps 705 mmHg 81%
    03:00 -13°C° 0 mm 3 mps 706 mmHg 83%
    04:00 -13°C° 0 mm 3 mps 706 mmHg 84%
    05:00 -13°C° 0 mm 3 mps 706 mmHg 79%
    06:00 -12°C° 0 mm 4 mps 707 mmHg 74%
    07:00 -12°C° 0 mm 4 mps 707 mmHg 69%
    08:00 -10°C° 0 mm 4 mps 707 mmHg 61%
    09:00 -9°C° 0 mm 4 mps 708 mmHg 53%
    10:00 -8°C° 0 mm 4 mps 708 mmHg 44%
    11:00 -7°C° 0 mm 4 mps 708 mmHg 42%
    12:00 -6°C° 0 mm 5 mps 708 mmHg 40%
    13:00 -5°C° 0 mm 5 mps 707 mmHg 37%
    14:00 -5°C° 0 mm 5 mps 707 mmHg 39%
    15:00 -5°C° 0 mm 5 mps 707 mmHg 40%
    16:00 -5°C° 0 mm 5 mps 707 mmHg 42%
    17:00 -6°C° 0 mm 5 mps 707 mmHg 45%
    18:00 -7°C° 0 mm 4 mps 707 mmHg 49%
    19:00 -7°C° 0 mm 4 mps 707 mmHg 53%
    20:00 -8°C° 0 mm 4 mps 707 mmHg 55%
    21:00 -9°C° 0 mm 4 mps 707 mmHg 57%
    22:00 -9°C° 0 mm 4 mps 708 mmHg 59%
    23:00 -10°C° 0 mm 4 mps 708 mmHg 62%
    Show more